Cape Romanzoff, AK

10:01 PM AKDT on April 23, 2017 (GMT -0800)
Cape Romanzof LRRS

Weather History for PACZ - July, 2013

Change the Weather History Date:

Sunday, July 14, 2013

  Actual Average Record
Temperature  
Mean Temperature 50 °F -  
Max Temperature 53 °F 52 °F 59 °F (2016)
Min Temperature 48 °F 42 °F 39 °F (2011)
Degree Days  
Heating Degree Days 14    
Moisture  
Dew Point 50 °F    
Average Humidity 97    
Maximum Humidity 100    
Minimum Humidity 82    
Precipitation  
Precipitation 0.45 in - - ()
Sea Level Pressure  
Sea Level Pressure 29.94 in    
Wind  
Wind Speed 22 mph (SSW)    
Max Wind Speed 30 mph    
Max Gust Speed 38 mph    
Visibility 4 miles    
Events Fog , Rain    
Averages and records for this station are not official NWS values.
T = Trace of Precipitation, MM = Missing Value Source: NWS Daily Summary

Daily Weather History Graph

Daily Weather History Graph

Search for Another Location

Airport or City:

Trip Planner

Search our weather history database for the weather conditions in past years. The results will help you decide how hot, cold, wet, or windy it might be!

Date:

Astronomy

Jul. 14, 2013 Rise Set
Actual Time 5:48 AM AKDT 12:30 AM AKDT
Civil Twilight 4:00 AM AKDT 2:13 AM AKDT
Nautical Twilight Sun does not set Sun does not set
Astronomical Twilight Sun does not set Sun does not set
Moon 2:43 PM AKDT (7/14) 1:04 AM AKDT (7/14)
Length of Visible Light 22h 13m
Length of Day
18h 41m
Waxing Crescent, 36% of the Moon is Illuminated
Jul 14
Waxing Crescent
Jul 15
First Quarter
Jul 22
Full
Jul 29
Last Quarter
Aug 6
New

Hourly Weather History & Observations

Time (AKDT) Temp. Dew Point Humidity Pressure Visibility Wind Dir Wind Speed Gust Speed Precip Events Conditions
12:47 AM 53.6 °F 48.2 °F 82% 29.89 in 10.0 mi South 19.6 mph - N/A   Mostly Cloudy
12:55 AM 53.8 °F 49.3 °F 85% 29.89 in 10.0 mi South 18.4 mph 25.3 mph N/A   Overcast
1:47 AM 53.6 °F 50.0 °F 88% 29.89 in 10.0 mi South 17.3 mph 24.2 mph N/A   Overcast
1:55 AM 53.8 °F 49.3 °F 85% 29.89 in 10.0 mi South 20.7 mph 27.6 mph N/A   Overcast
2:32 AM 53.6 °F 50.0 °F 88% 29.89 in 10.0 mi South 19.6 mph 29.9 mph N/A   Overcast
2:55 AM 53.4 °F 49.8 °F 88% 29.89 in 10.0 mi South 21.9 mph 28.8 mph N/A   Overcast
3:17 AM 53.6 °F 50.0 °F 88% 29.89 in 10.0 mi South 18.4 mph 25.3 mph N/A Rain Light Rain
3:55 AM 51.8 °F 51.8 °F 100% 29.88 in 10.0 mi South 19.6 mph 26.5 mph 0.02 in Rain Light Rain Showers
4:47 AM 53.6 °F 51.8 °F 94% 29.87 in 7.0 mi South 21.9 mph 31.1 mph N/A Rain Light Rain
4:55 AM 53.2 °F 52.5 °F 97% 29.87 in 7.0 mi South 23.0 mph 29.9 mph 0.06 in Rain Light Rain
5:55 AM 53.2 °F 52.3 °F 97% 29.87 in 6.0 mi South 24.2 mph 33.4 mph 0.08 in Rain Rain
6:02 AM 53.6 °F 51.8 °F 94% 29.87 in 7.0 mi South 26.5 mph 33.4 mph N/A Rain Rain
6:17 AM 53.6 °F 51.8 °F 94% 29.87 in 10.0 mi South 24.2 mph 33.4 mph N/A Rain Rain
6:47 AM 53.6 °F 51.8 °F 94% 29.87 in 10.0 mi South 29.9 mph 34.5 mph N/A Rain Rain
6:55 AM 52.9 °F 52.0 °F 97% 29.87 in 10.0 mi South 28.8 mph 35.7 mph 0.06 in Rain Rain
7:02 AM 53.6 °F 51.8 °F 94% 29.87 in 10.0 mi South 23.0 mph 34.5 mph N/A Rain Light Rain
7:17 AM 53.6 °F 51.8 °F 94% 29.87 in 9.0 mi South 27.6 mph 34.5 mph N/A Rain Light Rain
7:55 AM 53.1 °F 52.3 °F 97% 29.88 in 7.0 mi South 25.3 mph 34.5 mph 0.03 in Rain Rain
8:55 AM 52.9 °F 52.3 °F 98% 29.88 in 4.0 mi South 25.3 mph 34.5 mph 0.05 in Rain Rain
9:47 AM 51.8 °F 51.8 °F 100% 29.89 in 4.0 mi South 29.9 mph 35.7 mph N/A Rain Light Rain
9:55 AM 52.5 °F 51.6 °F 97% 29.90 in 3.0 mi South 29.9 mph 35.7 mph 0.03 in Rain Light Rain
10:02 AM 51.8 °F 51.8 °F 100% 29.90 in 1.8 mi South 25.3 mph 38.0 mph N/A Rain Light Rain
10:17 AM 51.8 °F 51.8 °F 100% 29.91 in 2.5 mi South 26.5 mph 33.4 mph N/A Rain Light Rain
10:32 AM 51.8 °F 51.8 °F 100% 29.91 in 10.0 mi South 26.5 mph 33.4 mph N/A Rain Light Rain
10:55 AM 51.8 °F 51.8 °F 100% 29.54 in 7.0 mi South 28.8 mph 33.4 mph N/A Rain Light Rain Showers
11:32 AM 51.8 °F 50.0 °F 94% 29.93 in 2.5 mi South 23.0 mph 32.2 mph N/A Rain Light Rain Showers
11:47 AM 51.8 °F 50.0 °F 94% 29.94 in 1.8 mi South 24.2 mph 31.1 mph N/A Rain Light Rain Showers
11:55 AM 51.3 °F 50.7 °F 98% 29.94 in 1.5 mi South 25.3 mph 29.9 mph 0.00 in Rain Light Rain Showers
12:55 PM 50.7 °F 50.5 °F 99% 29.95 in 1.0 mi SSW 25.3 mph 29.9 mph 0.03 in Rain Light Rain
1:02 PM 50.0 °F 50.0 °F 100% 29.95 in 1.2 mi South 24.2 mph 29.9 mph N/A Rain Light Rain
1:32 PM 50.0 °F 50.0 °F 100% 29.95 in 0.8 mi SSW 25.3 mph 31.1 mph N/A Rain Light Rain
1:47 PM 50.0 °F 50.0 °F 100% 29.95 in 1.0 mi SSW 26.5 mph 31.1 mph N/A Rain Light Rain
1:55 PM 50.5 °F 50.4 °F 99% 29.95 in 1.5 mi SSW 26.5 mph 33.4 mph 0.02 in Rain Light Rain
2:55 PM 50.2 °F 50.0 °F 99% 29.96 in 1.5 mi SSW 25.3 mph 31.1 mph 0.02 in Rain Light Rain
3:17 PM 50.0 °F 50.0 °F 100% 29.97 in 1.5 mi SSW 24.2 mph 28.8 mph N/A Rain Light Rain
3:32 PM 50.0 °F 50.0 °F 100% 29.98 in 0.2 mi SSW 21.9 mph 27.6 mph N/A Fog , Rain Light Rain
3:47 PM 50.0 °F 50.0 °F 100% 29.97 in 1.8 mi SSW 19.6 mph 28.8 mph N/A Rain Light Rain
3:55 PM 50.0 °F 50.0 °F 100% 29.97 in 2.5 mi SSW 20.7 mph - N/A   Light Drizzle
4:02 PM 50.0 °F 50.0 °F 100% 29.98 in 4.0 mi SSW 23.0 mph 28.8 mph N/A Rain Light Rain Showers
4:17 PM 50.0 °F 50.0 °F 100% 29.98 in 1.2 mi SSW 20.7 mph - N/A Rain Light Rain Showers
4:32 PM 50.0 °F 50.0 °F 100% 29.98 in 0.8 mi SSW 21.9 mph - N/A Rain Light Rain Showers
4:55 PM 49.3 °F 49.3 °F 100% 29.98 in 1.0 mi SSW 19.6 mph 26.5 mph 0.00 in Rain Light Rain Showers
5:02 PM 50.0 °F 50.0 °F 100% 29.98 in 1.5 mi SSW 19.6 mph 27.6 mph N/A Rain Light Rain Showers
5:32 PM 50.0 °F 50.0 °F 100% 29.98 in 0.5 mi SSW 19.6 mph - N/A Fog Light Drizzle
5:55 PM 49.1 °F 49.1 °F 100% 29.98 in 0.2 mi SSW 18.4 mph 24.2 mph 0.02 in Fog Light Drizzle
6:55 PM 49.1 °F 49.3 °F 100% 29.99 in 0.2 mi SSW 17.3 mph - 0.03 in Fog , Rain Light Rain
7:02 PM - - N/A% 29.99 in 0.8 mi SSW 17.3 mph - N/A Rain Light Rain
7:17 PM 48.2 °F 48.2 °F 100% 29.99 in 1.5 mi SSW 18.4 mph - N/A Rain Light Rain
7:32 PM 48.2 °F 48.2 °F 100% 30.00 in 2.5 mi SSW 19.6 mph - N/A Rain Light Rain Showers
7:47 PM 48.2 °F 48.2 °F 100% 30.00 in 7.0 mi SSW 17.3 mph - N/A Rain Light Rain Showers
7:55 PM 48.7 °F 48.6 °F 99% 30.00 in 3.0 mi SSW 17.3 mph - 0.00 in Rain Light Rain Showers
8:02 PM 48.2 °F 48.2 °F 100% 30.00 in 2.5 mi South 17.3 mph - N/A Rain Light Rain Showers
8:17 PM 48.2 °F 48.2 °F 100% 30.00 in 1.0 mi SSW 15.0 mph - N/A Rain Light Rain Showers
8:32 PM 48.2 °F 48.2 °F 100% 30.00 in 0.5 mi SSW 17.3 mph - N/A Fog Fog
8:47 PM 48.2 °F 48.2 °F 100% 30.00 in 2.5 mi SSW 16.1 mph - N/A Rain Light Rain Showers
8:55 PM 48.7 °F 48.7 °F 100% 30.00 in 2.5 mi SSW 17.3 mph - N/A Rain Light Rain Showers
9:17 PM 48.2 °F 48.2 °F 100% 30.00 in 10.0 mi SSW 17.3 mph - N/A   Overcast
9:32 PM 48.2 °F 48.2 °F 100% 30.00 in 10.0 mi SSW 18.4 mph - N/A   Overcast
9:55 PM 48.4 °F 48.4 °F 100% 30.00 in 4.0 mi SSW 16.1 mph - N/A   Overcast
10:03 PM 48.2 °F 48.2 °F 100% 30.00 in 1.8 mi SSW 16.1 mph - N/A   Light Drizzle
10:33 PM 48.2 °F 48.2 °F 100% 30.01 in 0.2 mi SSW 16.1 mph - N/A Fog , Rain Light Rain Showers
10:55 PM 48.4 °F 48.6 °F 100% 30.01 in 0.2 mi SSW 12.7 mph - 0.00 in Fog , Rain Light Rain Showers
11:48 PM 48.2 °F 48.2 °F 100% 30.01 in 0.2 mi SSW 16.1 mph - N/A Fog , Rain Light Rain
11:55 PM 48.0 °F 48.2 °F 100% 30.01 in 0.2 mi SSW 17.3 mph - 0.00 in Fog , Rain Light Rain